Date String (YYYY-MM-DD hh:mm:ss) UTC,Instrument flags,Ambient pressure (hPa),Sample flow (lpm),Bypass flow (lpm),Sample temperature (°C),Ambient temperature (°C),ASC tube jacket temperature (°C),LED temperature (°C),Box temperature (°C),Sample RH (%),Span deviation,Mass concentration (μg/m³),Mass concentration (μg/m³),Mass concentration (μg/m³)
DateTimeUTC,F1_M11,P_M11,Q1_M11,Q2_M11,T1_M11,T2_M11,T3_M11,T4_M11,T5_M11,U1_M11,ZSPAN_M11,X2_M11,X0_M11,X1_M11
2023-03-10 03:00:00,,0826.9,4.99,0.00,22.2,21.4,00.0,30.8,24.0,16.8,0000.7,0005.79,0009.54,0005.37
2023-03-10 03:01:00,,0826.9,5.00,0.00,22.2,21.2,00.0,30.8,24.0,17.0,0000.5,0005.82,0009.64,0005.37
2023-03-10 03:02:00,,0827.0,5.01,0.00,22.2,21.0,00.0,30.9,24.0,16.9,-000.2,0005.78,0009.38,0005.36
2023-03-10 03:03:00,,0826.9,4.99,0.00,22.2,20.9,00.0,30.9,23.9,16.8,-000.3,0005.77,0008.93,0005.34
2023-03-10 03:04:00,,0827.0,4.99,0.00,22.2,20.9,00.0,30.9,23.9,16.9,-000.6,0005.80,0009.60,0005.35
2023-03-10 03:05:00,,0827.1,5.01,0.00,22.2,20.8,00.0,30.9,23.9,17.0,-000.7,0005.85,0010.26,0005.37
2023-03-10 03:06:00,,0827.0,5.02,0.00,22.2,20.8,00.0,30.9,23.9,16.9,-000.8,0005.87,0010.35,0005.39
2023-03-10 03:07:00,,0827.0,5.00,0.00,22.2,20.7,00.0,30.9,23.9,16.8,-001.1,0005.87,0010.38,0005.38
2023-03-10 03:08:00,,0826.9,5.00,0.00,22.2,20.7,00.0,30.9,23.9,16.5,-001.1,0005.84,0010.31,0005.37
2023-03-10 03:09:00,,0826.9,5.00,0.00,22.1,20.6,00.0,30.9,23.9,16.4,-001.0,0005.80,0010.76,0005.34
2023-03-10 03:10:00,,0826.9,5.01,0.00,22.1,20.5,00.0,30.9,23.8,16.4,-000.7,0005.81,0011.99,0005.30
2023-03-10 03:11:00,,0827.0,5.01,0.00,22.1,20.4,00.0,30.9,23.8,16.3,-000.9,0005.82,0012.86,0005.29
2023-03-10 03:12:00,,0827.3,5.01,0.00,22.1,20.3,00.0,30.9,23.7,16.3,-000.5,0005.78,0012.99,0005.25
2023-03-10 03:13:00,,0827.2,5.01,0.00,22.0,20.2,00.0,30.8,23.7,16.3,-000.7,0005.77,0013.71,0005.19
2023-03-10 03:14:00,,0827.0,5.01,0.00,22.0,20.1,00.0,30.8,23.6,16.4,-000.9,0005.74,0013.77,0005.14
2023-03-10 03:15:00,,0826.9,5.00,0.00,22.0,20.1,00.0,30.8,23.5,16.4,-001.0,0005.69,0013.20,0005.07
2023-03-10 03:16:00,,0827.1,5.00,0.00,21.9,20.0,00.0,30.8,23.4,16.4,-000.8,0005.64,0012.72,0005.02
2023-03-10 03:17:00,,0827.0,4.99,0.00,21.9,19.8,00.0,30.8,23.4,16.4,-001.3,0005.61,0012.73,0004.96
2023-03-10 03:18:00,,0826.9,5.00,0.00,21.8,19.9,00.0,30.7,23.4,16.5,-001.4,0005.56,0012.69,0004.91
2023-03-10 03:19:00,,0826.9,5.02,0.00,21.9,20.9,00.0,30.7,23.7,16.4,-001.5,0005.53,0012.75,0004.89
2023-03-10 03:20:00,,0826.9,4.99,0.00,22.0,22.1,00.0,30.7,24.0,16.3,-001.7,0005.52,0012.10,0004.89
2023-03-10 03:21:00,,0826.9,5.00,0.00,22.1,22.5,00.0,30.7,24.1,16.2,-001.7,0005.50,0011.01,0004.89
2023-03-10 03:22:00,,0827.0,4.97,0.00,22.2,22.1,00.0,30.8,24.1,16.2,-002.1,0005.49,0010.19,0004.89
2023-03-10 03:23:00,,0826.9,5.02,0.00,22.2,21.6,00.0,30.8,24.0,16.1,-002.5,0005.52,0010.14,0004.90
2023-03-10 03:24:00,,0827.1,5.01,0.00,22.1,21.3,00.0,30.8,23.9,16.1,-002.2,0005.52,0009.51,0004.90
2023-03-10 03:25:00,,0827.3,5.00,0.00,22.1,21.0,00.0,30.8,23.8,16.1,-002.0,0005.50,0009.33,0004.91
2023-03-10 03:26:00,,0827.3,5.00,0.00,22.1,20.8,00.0,30.8,23.8,16.1,-002.0,0005.49,0009.36,0004.93
2023-03-10 03:27:00,,0827.1,5.00,0.00,22.1,20.7,00.0,30.8,23.8,16.2,-002.0,0005.48,0009.63,0004.94
2023-03-10 03:28:00,,0827.2,4.99,0.00,22.1,20.6,00.0,30.8,23.7,16.2,-001.6,0005.48,0010.14,0004.96
2023-03-10 03:29:00,,0827.2,5.01,0.00,22.1,20.5,00.0,30.8,23.7,16.2,-001.3,0005.48,0010.23,0004.97
2023-03-10 03:30:00,,0827.2,4.99,0.00,22.0,20.5,00.0,30.8,23.7,16.2,-001.6,0005.47,0010.07,0004.99
2023-03-10 03:31:00,,0827.1,5.00,0.00,22.0,20.5,00.0,30.8,23.7,16.3,-001.7,0005.51,0010.13,0005.03
2023-03-10 03:32:00,,0827.2,4.99,0.00,22.0,20.5,00.0,30.8,23.8,16.5,-001.8,0005.58,0010.16,0005.10
2023-03-10 03:33:00,,0827.1,5.01,0.00,22.0,20.5,00.0,30.8,23.8,16.6,-001.6,0005.63,0010.06,0005.16
2023-03-10 03:34:00,,0827.1,5.00,0.00,22.0,20.5,00.0,30.8,23.8,16.7,-001.9,0005.67,0010.07,0005.24
2023-03-10 03:35:00,,0827.1,4.99,0.00,22.0,20.5,00.0,30.8,23.7,16.8,-001.4,0005.73,0010.04,0005.32
2023-03-10 03:36:00,,0827.1,5.01,0.00,22.0,20.5,00.0,30.8,23.7,16.9,-001.7,0005.79,0010.07,0005.40
2023-03-10 03:37:00,,0827.2,5.00,0.00,22.0,20.4,00.0,30.8,23.7,16.9,-001.5,0005.87,0010.47,0005.47
2023-03-10 03:38:00,,0826.9,4.98,0.00,22.0,20.4,00.0,30.8,23.7,16.9,-001.5,0005.93,0010.32,0005.53
2023-03-10 03:39:00,,0827.0,5.01,0.00,22.0,20.3,00.0,30.8,23.7,16.9,-001.2,0005.99,0009.80,0005.60
2023-03-10 03:40:00,,0827.0,5.00,0.00,22.0,20.2,00.0,30.8,23.7,17.0,-001.2,0006.07,0009.75,0005.67
2023-03-10 03:41:00,,0826.9,5.00,0.00,22.0,20.2,00.0,30.8,23.7,16.9,-001.1,0006.17,0009.85,0005.75
2023-03-10 03:42:00,,0826.8,5.01,0.00,22.0,20.2,00.0,30.8,23.7,16.8,-001.0,0006.22,0009.83,0005.80
2023-03-10 03:43:00,,0827.0,4.99,0.00,21.9,20.1,00.0,30.7,23.6,17.1,-001.2,0006.23,0009.83,0005.84
2023-03-10 03:44:00,,0827.1,5.00,0.00,21.9,20.2,00.0,30.7,23.6,17.2,-001.3,0006.29,0009.94,0005.86
2023-03-10 03:45:00,,0827.0,5.01,0.00,21.9,20.1,00.0,30.7,23.6,17.1,-001.3,0006.29,0009.96,0005.88
2023-03-10 03:46:00,,0826.9,5.00,0.00,21.9,20.1,00.0,30.7,23.6,17.2,-001.6,0006.31,0010.07,0005.89
2023-03-10 03:47:00,,0827.0,5.00,0.00,21.9,20.1,00.0,30.7,23.6,17.2,-001.4,0006.35,0010.18,0005.92
2023-03-10 03:48:00,,0826.9,5.00,0.00,21.9,20.1,00.0,30.7,23.6,17.3,-001.5,0006.36,0010.00,0005.94
2023-03-10 03:49:00,,0826.8,5.01,0.00,21.9,20.1,00.0,30.7,23.6,17.4,-001.2,0006.39,0010.35,0005.97
2023-03-10 03:50:00,,0826.8,5.00,0.00,21.9,20.1,00.0,30.7,23.6,17.5,-001.3,0006.45,0010.51,0006.00
2023-03-10 03:51:00,,0826.7,5.00,0.00,21.9,20.1,00.0,30.7,23.6,17.5,-001.3,0006.52,0010.72,0006.04
2023-03-10 03:52:00,,0826.7,5.00,0.00,21.9,20.2,00.0,30.6,23.6,17.5,-001.2,0006.59,0011.09,0006.09
2023-03-10 03:53:00,,0826.7,5.01,0.00,21.9,21.0,00.0,30.6,23.8,17.5,-001.0,0006.68,0011.52,0006.19
2023-03-10 03:54:00,,0826.7,5.01,0.00,22.0,22.1,00.0,30.6,24.0,17.5,-000.6,0006.79,0011.71,0006.28
2023-03-10 03:55:00,,0826.7,5.01,0.00,22.1,22.6,00.0,30.7,24.2,17.4,-000.2,0006.89,0011.82,0006.40
2023-03-10 03:56:00,,0826.7,5.00,0.00,22.2,22.2,00.0,30.7,24.1,17.3,-000.5,0007.02,0012.00,0006.50
2023-03-10 03:57:00,,0826.7,5.01,0.00,22.2,21.8,00.0,30.8,24.1,17.3,-000.4,0007.17,0012.19,0006.64
2023-03-10 03:58:00,,0826.7,4.99,0.00,22.2,21.4,00.0,30.8,24.0,17.2,-000.4,0007.30,0012.43,0006.77
2023-03-10 03:59:00,,0826.7,5.00,0.00,22.1,21.1,00.0,30.8,23.8,17.1,-000.4,0007.37,0012.34,0006.84
